Terug naar catalogus

ATLAS 5 CENTAUR DEB

LostHEO
NORAD 57590·DEBRIS·🇺🇸 United States

Gelanceerd Oct 17, 2018 vanaf Cape Canaveral Space Force Station

Loading…

Volgende Passages (komende 24 uur)

TLE

VerouderdSource: Space-Track

Epoch: May 24, 2026, 05:37 UTC

1 57590U 18079HR  26144.23436488 -.00000104  00000-0  00000-0 0  9992
2 57590  12.0491  90.6701 4919663 196.6835 138.4381  1.56223341 26085

Volg ATLAS 5 CENTAUR DEB in realtime met AllMySat

Download on the App Store